User: anonymous   Login
Location: Al Mulaqqa?ah
(24.1833°N, 32.8833°E)
Time: 22:52:31
(UTC+00:00)
Language:

Geosat - Orbit

View from above orbital plane
View from above orbital plane
View from above satellite
View from above satellite

Ground track
Ground track

The orbit data is extracted from the following two-line orbital elements,

1 15595U 85021A   21333.48675531 -.00000027  00000-0  35634-4 0  9997
2 15595 108.0412 229.0291 0001441 290.4259  69.6727 14.38234743923863
Epoch (UTC): 29 November 2021 11:40:55
Eccentricity: 0.0001441
inclination: 108.0412°
perigee height: 763 km
apogee height: 765 km
right ascension of ascending node: 229.0291°
argument of perigee: 290.4259°
revolutions per day: 14.38234743
mean anomaly at epoch: 69.6727°
orbit number at epoch: 92386

The dashed part of the orbit path shows where the satellite is in the earth's shadow,  

DLR